[[{"header":{"parameterUnit":"m.s-1","parameterCategory":2,"la1":30.2991,"la2":30.254,"lo1":-89.0895,"lo2":-89.0444,"dy":0.0017,"dx":0.0017,"nx":28,"ny":28,"refTime":"2023-08-06T03:00:00:Z","depth":"0","parameterNumber":2,"parameterNumberName":"U-component_of_CURRENTS"},"data":[0,0,0,0,0,0,0,0,0,0,0,0,0,0,0,0,0,0,0,0,0,0,0,0,0,0,0,0,0,0,0,0,0,0,0,0,0,0,0,0,0,0,0,0,0,0,0,0,0,0,0,0,0,0,0,0,0,0,0.2263,0.2265,0,0.2357,0.2357,0.2358,0.2337,0.2336,0.2335,0.2333,0.2351,0.2352,0.2354,0,0,0,0,0,0,0,0,0,0,0,0,0,0.2035,0.2039,0.2263,0.2265,0.2267,0.2357,0.2357,0.2358,0.2337,0.2336,0.2334,0.2333,0.235,0.2352,0.2354,0,0,0,0,0,0,0,0,0,0,0,0,0,0.2126,0.2041,0.2263,0.2272,0.2274,0.2356,0.2357,0.2358,0.2337,0.2336,0.2334,0.2332,0.2349,0.2352,0.2354,0.2403,0,0,0.2361,0.2362,0,0,0,0,0,0,0,0,0.2121,0.2134,0.2269,0.2272,0.2274,0.2339,0.2284,0.2372,0.2338,0.2307,0.2333,0.2331,0.2345,0.2348,0.2361,0.2404,0.2405,0.2361,0.2363,0.2364,0.2364,0,0,0,0,0,0,0,0.2115,0.2129,0.2294,0.2271,0.2275,0.2261,0.2272,0.23,0.2328,0.2309,0.2309,0.2331,0.2345,0.2359,0.2361,0.2405,0.2361,0.2363,0.2365,0.2366,0.2477,0.2479,0,0,0,0,0,0,0.2121,0.2124,0.2291,0.2297,0.2199,0.2267,0.2279,0.2315,0.2329,0.2333,0.2332,0.233,0.2356,0.2358,0.2362,0.2395,0.2364,0.2366,0.2367,0.2476,0.2477,0.2479,0,0,0,0,0,0,0.2116,0.2136,0.2287,0.2216,0.2235,0.2274,0.2314,0.2318,0.2327,0.2349,0.2349,0.2338,0.2354,0.2358,0.2383,0.2396,0.2367,0.2369,0.2474,0.2476,0.2478,0.2479,0,0,0,0,0,0,0.2109,0.2133,0.2141,0.2218,0.224,0.2311,0.2317,0.2321,0.2347,0.2344,0.2355,0.2355,0.2353,0.2379,0.2385,0.2399,0.2371,0.2472,0.2475,0.2478,0.2477,0.2481,0.2484,0,0,0,0,0,0.2101,0.2114,0.2142,0.2161,0.2257,0.2312,0.232,0.2337,0.2349,0.2341,0.2364,0.2354,0.2402,0.2382,0.2389,0.2404,0.247,0.2474,0.2477,0.2475,0.248,0.2484,0,0,0,0,0,0,0.2032,0.2117,0.2147,0.2191,0.2241,0.231,0.231,0.2343,0.236,0.236,0.2374,0.2376,0.24,0.2413,0.2391,0.2448,0.2436,0.2441,0.2432,0.2437,0.244,0.2431,0.2373,0,0,0,0,0,0.2025,0.2051,0.2137,0.2174,0.2195,0.2259,0.2281,0.2309,0.2349,0.2354,0.2372,0.2398,0.2426,0.2436,0.2455,0.2492,0.2514,0.2508,0.2512,0.2515,0.2514,0.2571,0.2579,0.2491,0.2491,0.2491,0,0,0.202,0.2065,0.2086,0.2159,0.2199,0.2232,0.2264,0.2307,0.2338,0.2356,0.2383,0.2408,0.2439,0.2469,0.2482,0.2477,0.2555,0.2519,0.2521,0.2519,0.2575,0.2584,0.2591,0.2493,0.2493,0.2492,0,0,0.2011,0.2054,0.2067,0.2102,0.2166,0.2209,0.2224,0.2298,0.2319,0.2369,0.2391,0.2424,0.2466,0.2489,0.2509,0.2553,0.257,0.2566,0.2579,0.2634,0.2641,0.2648,0.2692,0.2702,0.2571,0.2571,0.2571,0,0.2002,0.2034,0.2078,0.2096,0.2124,0.2199,0.2224,0.2268,0.2341,0.2371,0.2368,0.2459,0.2475,0.2531,0.2544,0.2558,0.2594,0.2553,0.2637,0.2644,0.2651,0.2694,0.2706,0.2572,0.2572,0.2572,0.2571,0,0.2006,0.2024,0.2032,0.2081,0.2112,0.2145,0.2221,0.226,0.2308,0.2361,0.2424,0.2461,0.2514,0.2532,0.255,0.2617,0.2629,0.263,0.2618,0.2659,0.2703,0.2715,0.2572,0.2572,0.2572,0.2572,0,0,0.2004,0.2032,0.2031,0.2041,0.2106,0.214,0.2193,0.2267,0.2311,0.2377,0.2433,0.2492,0.2528,0.2554,0.259,0.264,0.2717,0.266,0.2663,0.2691,0.2844,0.2754,0.2759,0.274,0.2742,0.2744,0.2856,0,0.1994,0.201,0.2029,0.205,0.2066,0.2131,0.2173,0.225,0.2314,0.2382,0.2457,0.2511,0.2535,0.2565,0.2624,0.2696,0.2749,0.2687,0.2811,0.2814,0.2719,0.277,0.265,0.2731,0.2867,0.2869,0.2871,0,0.198,0.199,0.2006,0.2034,0.2048,0.2074,0.2154,0.2207,0.2319,0.2369,0.245,0.2509,0.2605,0.2609,0.2756,0.2722,0.2784,0.2833,0.2839,0.276,0.2747,0.2714,0.2747,0.2583,0.2889,0.2888,0.2886,0,0.1952,0.1967,0.1976,0.1988,0.2043,0.2065,0.2106,0.2203,0.2248,0.2367,0.2405,0.253,0.2588,0.2697,0.2794,0.2793,0.2943,0.2951,0.2929,0.2924,0.2846,0.2829,0.272,0.3048,0.3048,0.3047,0.3047,0,0.1931,0.1931,0.1958,0.197,0.1982,0.2034,0.2073,0.2139,0.2227,0.2278,0.2394,0.2449,0.2614,0.2714,0.281,0.2899,0.2959,0.2938,0.2949,0.2842,0.2824,0.2695,0.2697,0.3052,0.3051,0.305,0.3049,0,0.1899,0.1918,0.1927,0.1965,0.197,0.1988,0.2036,0.2069,0.2156,0.2227,0.2262,0.2411,0.2545,0.2682,0.2855,0.2893,0.2895,0.3007,0.2859,0.2848,0.2652,0.2661,0.2552,0.2477,0.3015,0.3013,0.3012,0,0.1885,0.1885,0.1916,0.1914,0.1925,0.1947,0.1962,0.2036,0.2069,0.2194,0.2224,0.2364,0.2464,0.2669,0.2782,0.2925,0.2835,0.2851,0.2812,0.2617,0.2639,0.2535,0.2474,0.2728,0.2725,0.2722,0.272,0,0.1849,0.1864,0.1877,0.1874,0.1876,0.1879,0.1904,0.1916,0.2009,0.2064,0.215,0.2236,0.2432,0.2528,0.2681,0.2749,0.2661,0.2793,0.2644,0.2444,0.2278,0.2217,0.2672,0.2694,0.2697,0.2699,0.27,0.2701,0.1816,0.1811,0.1823,0.1811,0.1813,0.18,0.1787,0.1824,0.1858,0.1922,0.2044,0.2128,0.2254,0.2469,0.2507,0.2415,0.2508,0.2345,0.2392,0.2314,0.2164,0.2541,0.2528,0.253,0.2531,0.2532,0.2533,0,0.1737,0.174,0.1748,0.1728,0.1699,0.1723,0.1729,0.1711,0.1721,0.1813,0.1883,0.1952,0.2006,0.2078,0.2088,0.2018,0.1937,0.1937,0.1769,0.1748,0.2123,0.2024,0.1834,0.1834,0.1834,0.1834,0.1835,0.1835,0.17,0.1664,0.167,0.1602,0.159,0.1532,0.1521,0.1524,0.1568,0.1589,0.1615,0.1688,0.1751,0.1733,0.162,0.1603,0.1467,0.1418,0.1422,0.1673,0.1713,0.175,0.1646,0.138,0.138,0.0903,0.09,0.0897]},{"header":{"parameterUnit":"m.s-1","parameterCategory":2,"la1":30.2991,"la2":30.254,"lo1":-89.0895,"lo2":-89.0444,"dy":0.0017,"dx":0.0017,"nx":28,"ny":28,"refTime":"2023-08-06T03:00:00:Z","depth":"0","parameterNumber":3,"parameterNumberName":"V-component_of_CURRENTS"},"data":[0,0,0,0,0,0,0,0,0,0,0,0,0,0,0,0,0,0,0,0,0,0,0,0,0,0,0,0,0,0,0,0,0,0,0,0,0,0,0,0,0,0,0,0,0,0,0,0,0,0,0,0,0,0,0,0,0,0,0.1081,0.1082,0,0.1148,0.1148,0.1148,0.112,0.1119,0.1118,0.1117,0.0994,0.0991,0.0989,0,0,0,0,0,0,0,0,0,0,0,0,0,0.0951,0.0952,0.108,0.1082,0.1084,0.1148,0.1148,0.1148,0.112,0.1119,0.1118,0.1117,0.0995,0.0992,0.0989,0,0,0,0,0,0,0,0,0,0,0,0,0,0.1002,0.0953,0.108,0.1085,0.1087,0.1148,0.1148,0.1148,0.112,0.1119,0.1118,0.1117,0.0996,0.0992,0.0988,0.0985,0,0,0.0976,0.0974,0,0,0,0,0,0,0,0,0.0999,0.1005,0.1083,0.1085,0.1087,0.1133,0.1058,0.1087,0.112,0.1097,0.1117,0.1116,0.103,0.1023,0.1027,0.0979,0.0974,0.0976,0.0973,0.0972,0.0971,0,0,0,0,0,0,0,0.0995,0.1003,0.1097,0.1085,0.1088,0.1093,0.1098,0.1063,0.1057,0.1099,0.1099,0.1123,0.1028,0.1031,0.1023,0.0972,0.0976,0.0972,0.097,0.0968,0.0872,0.0872,0,0,0,0,0,0,0.1008,0.0999,0.1095,0.11,0.1051,0.1097,0.1102,0.1111,0.1062,0.1058,0.1124,0.1122,0.1038,0.1028,0.1019,0.1005,0.0972,0.0968,0.0966,0.0872,0.0872,0.0871,0,0,0,0,0,0,0.1004,0.1015,0.1092,0.106,0.1071,0.1101,0.1112,0.1113,0.1122,0.1085,0.1075,0.1133,0.1037,0.1024,0.0982,0.1,0.0966,0.0963,0.0872,0.0872,0.0872,0.0982,0,0,0,0,0,0,0.1,0.1013,0.1011,0.106,0.1074,0.1133,0.1114,0.1116,0.1143,0.114,0.1089,0.1077,0.1035,0.0988,0.0978,0.0994,0.0959,0.0872,0.0872,0.0872,0.0978,0.0985,0.0991,0,0,0,0,0,0.0995,0.1001,0.101,0.1022,0.1074,0.1136,0.1142,0.1153,0.1145,0.1153,0.1108,0.1078,0.0978,0.0985,0.0973,0.0988,0.0873,0.0872,0.0872,0.0975,0.0984,0.0991,0,0,0,0,0,0,0.098,0.1002,0.1012,0.1034,0.1086,0.1135,0.1146,0.1163,0.114,0.1123,0.1078,0.1062,0.103,0.0989,0.0998,0.0955,0.092,0.0917,0.1003,0.101,0.1016,0.103,0.0956,0,0,0,0,0,0.0973,0.0962,0.1019,0.1047,0.1065,0.1108,0.1131,0.1146,0.1148,0.1139,0.1108,0.1059,0.1021,0.1,0.0953,0.0937,0.0909,0.0935,0.0942,0.0948,0.0948,0.0921,0.0926,0.087,0.087,0.087,0,0,0.0989,0.0996,0.1,0.104,0.1072,0.1103,0.1115,0.1158,0.1177,0.1125,0.1113,0.1078,0.1018,0.0994,0.0977,0.0964,0.0953,0.0947,0.0953,0.095,0.0921,0.0927,0.0932,0.087,0.087,0.087,0,0,0.101,0.1013,0.1005,0.1035,0.1082,0.1108,0.1125,0.1171,0.1174,0.1175,0.1136,0.1119,0.106,0.1036,0.1011,0.1025,0.0984,0.1004,0.1056,0.1031,0.1036,0.104,0.1039,0.1042,0.1013,0.1013,0.1013,0,0.1016,0.1027,0.1027,0.1037,0.107,0.1111,0.1142,0.1157,0.1184,0.1191,0.1173,0.1122,0.1082,0.1067,0.1073,0.1044,0.1023,0.1041,0.1043,0.1046,0.1048,0.1046,0.1048,0.1018,0.1018,0.1017,0.1017,0,0.1038,0.1046,0.1057,0.1062,0.1096,0.1136,0.117,0.1191,0.1203,0.122,0.1215,0.1176,0.1153,0.1142,0.1111,0.1114,0.1093,0.1056,0.1035,0.1061,0.1056,0.1057,0.1026,0.1024,0.1023,0.1021,0,0,0.1031,0.1058,0.1057,0.1073,0.1111,0.1148,0.1176,0.1223,0.1249,0.1253,0.1284,0.1243,0.1243,0.1214,0.1188,0.1174,0.1192,0.113,0.1126,0.1149,0.1151,0.1142,0.1141,0.1153,0.1152,0.1152,0.1152,0,0.1045,0.1066,0.1077,0.1122,0.1143,0.1182,0.1213,0.1253,0.1277,0.1308,0.1295,0.1296,0.1263,0.1266,0.125,0.1204,0.1191,0.1196,0.1102,0.11,0.1105,0.114,0.1158,0.1159,0.1152,0.1152,0.1152,0,0.1045,0.1057,0.1098,0.1149,0.1164,0.1194,0.1259,0.1297,0.1342,0.1359,0.1373,0.1364,0.1368,0.1323,0.1276,0.1278,0.1222,0.1181,0.1179,0.1128,0.109,0.1121,0.1158,0.1054,0.1151,0.1151,0.1151,0,0.1033,0.1068,0.1103,0.112,0.1183,0.121,0.1251,0.1307,0.1348,0.1396,0.1425,0.1422,0.1428,0.1365,0.131,0.1286,0.1249,0.1201,0.1139,0.1139,0.1114,0.1111,0.1052,0.1145,0.1145,0.1145,0.1145,0,0.1035,0.1059,0.1095,0.1119,0.1161,0.1207,0.1272,0.1312,0.1378,0.1425,0.1449,0.148,0.1432,0.1415,0.134,0.1265,0.1273,0.1159,0.1137,0.1154,0.1155,0.1026,0.0976,0.1145,0.1145,0.1145,0.1145,0,0.102,0.1052,0.1086,0.1141,0.1159,0.1189,0.1281,0.1326,0.1391,0.1454,0.1473,0.1525,0.151,0.1465,0.1382,0.1308,0.1196,0.1189,0.1234,0.1216,0.1044,0.1,0.0936,0.096,0.1122,0.1121,0.1121,0,0.1021,0.1034,0.1087,0.1104,0.1127,0.1183,0.1227,0.1316,0.1366,0.1474,0.1496,0.1531,0.155,0.1475,0.1368,0.1266,0.119,0.1196,0.114,0.1049,0.0983,0.0961,0.0986,0.1163,0.1163,0.1163,0.1163,0,0.1008,0.1024,0.1051,0.1079,0.1117,0.1173,0.1238,0.1283,0.1389,0.1456,0.1527,0.1561,0.1525,0.1473,0.1367,0.1276,0.1164,0.1192,0.1079,0.1,0.0991,0.0999,0.1163,0.1164,0.1164,0.1164,0.1164,0.1164,0.0987,0.0993,0.1022,0.1046,0.1091,0.1142,0.1183,0.126,0.135,0.1452,0.1518,0.1588,0.1558,0.1427,0.1329,0.1128,0.1123,0.1025,0.098,0.0968,0.0982,0.1162,0.1141,0.114,0.114,0.114,0.114,0,0.0937,0.0956,0.0985,0.1022,0.1052,0.1093,0.1173,0.1217,0.1298,0.1431,0.1514,0.1578,0.146,0.135,0.1094,0.0938,0.0941,0.0842,0.0806,0.0845,0.0979,0.097,0.0933,0.0933,0.0933,0.0933,0.0933,0.0933,0.0921,0.0916,0.0935,0.0966,0.0997,0.1039,0.1077,0.115,0.1249,0.1384,0.1483,0.1576,0.1512,0.1026,0.0723,0.0687,0.064,0.0607,0.059,0.0635,0.0648,0.066,0.0638,0.0532,0.0531,0.0509,0.0508,0.0507]}],[{"header":{"parameterUnit":"m.s-1","parameterCategory":2,"la1":30.2991,"la2":30.254,"lo1":-89.0895,"lo2":-89.0444,"dy":0.0017,"dx":0.0017,"nx":28,"ny":28,"refTime":"2023-08-06T03:00:00:Z","depth":"2","parameterNumber":2,"parameterNumberName":"U-component_of_CURRENTS"},"data":[0,0,0,0,0,0,0,0,0,0,0,0,0,0,0,0,0,0,0,0,0,0,0,0,0,0,0,0,0,0,0,0,0,0,0,0,0,0,0,0,0,0,0,0,0,0,0,0,0,0,0,0,0,0,0,0,0,0,0.0108,0.0107,0,0.0104,0.0105,0.0107,0.0277,0.028,0.0283,0.0285,0.05,0.0503,0.0506,0,0,0,0,0,0,0,0,0,0,0,0,0,0.0259,0.0258,0.0109,0.0107,0.0105,0.0104,0.0106,0.0107,0.0277,0.028,0.0283,0.0287,0.0499,0.0503,0.0507,0,0,0,0,0,0,0,0,0,0,0,0,0,0.0237,0.0257,0.0109,0.0175,0.0179,0.0103,0.0106,0.0108,0.0276,0.028,0.0284,0.0288,0.0498,0.0503,0.0507,0.0454,0,0,0.0522,0.0524,0,0,0,0,0,0,0,0,0.0238,0.0234,0.0167,0.017,0.0175,0.0178,0.0236,0.0228,0.0275,0.026,0.0285,0.029,0.0397,0.041,0.0425,0.0464,0.0473,0.0522,0.0525,0.0527,0.0528,0,0,0,0,0,0,0,0.0239,0.0234,0.0127,0.0164,0.0169,0.0201,0.0205,0.0236,0.0325,0.0262,0.0269,0.0236,0.0404,0.042,0.0432,0.0476,0.0522,0.0526,0.0529,0.0531,0.093,0.0938,0,0,0,0,0,0,0.0195,0.0235,0.0126,0.0124,0.0195,0.0194,0.0199,0.0189,0.032,0.0336,0.0232,0.0244,0.041,0.0426,0.044,0.0553,0.0527,0.0532,0.0534,0.0923,0.0932,0.094,0,0,0,0,0,0,0.0199,0.0187,0.0126,0.0164,0.0156,0.0185,0.0173,0.0186,0.0284,0.0291,0.0318,0.0325,0.0414,0.0433,0.0621,0.0556,0.0534,0.0538,0.0913,0.0925,0.0936,0.0671,0,0,0,0,0,0,0.0204,0.0189,0.0214,0.0161,0.0151,0.0125,0.0168,0.0182,0.0242,0.0261,0.0376,0.0396,0.0418,0.0615,0.0626,0.0563,0.0542,0.0904,0.0919,0.0932,0.067,0.0672,0.0674,0,0,0,0,0,0.021,0.0269,0.0216,0.0204,0.017,0.0123,0.0127,0.0173,0.0243,0.0284,0.044,0.0397,0.0715,0.0625,0.0636,0.0571,0.0896,0.0914,0.0931,0.0669,0.0671,0.0674,0,0,0,0,0,0,0.0312,0.0285,0.023,0.0262,0.0188,0.0147,0.0237,0.0211,0.0355,0.044,0.0479,0.051,0.0661,0.0722,0.062,0.077,0.0804,0.0824,0.0601,0.0604,0.0606,0.0613,0.0546,0,0,0,0,0,0.0329,0.0386,0.0284,0.0287,0.0315,0.0274,0.0284,0.0271,0.0344,0.0415,0.0479,0.062,0.0722,0.0755,0.0882,0.092,0.0941,0.0921,0.0922,0.0921,0.0962,0.0975,0.0973,0.0998,0.0998,0.0997,0,0,0.0302,0.0338,0.0326,0.0314,0.0329,0.0302,0.0308,0.0345,0.0302,0.0414,0.0526,0.0646,0.0771,0.0849,0.0912,0.0879,0.0922,0.0943,0.0937,0.0981,0.0992,0.0987,0.0982,0.101,0.1007,0.1006,0,0,0.0341,0.0395,0.0462,0.0442,0.0449,0.0405,0.042,0.0408,0.0445,0.0501,0.0606,0.071,0.0855,0.0872,0.0911,0.1019,0.0975,0.1085,0.1001,0.1008,0.1001,0.0995,0.0923,0.0913,0.1022,0.1022,0.1021,0,0.0336,0.0385,0.0449,0.0511,0.049,0.0458,0.0444,0.0439,0.0455,0.0503,0.0556,0.079,0.0841,0.0883,0.0928,0.0985,0.1009,0.0915,0.0985,0.0981,0.0979,0.0909,0.09,0.1011,0.1012,0.1013,0.1014,0,0.0345,0.0424,0.0504,0.0546,0.052,0.0538,0.0472,0.0507,0.0547,0.0514,0.0647,0.0727,0.0871,0.0847,0.0904,0.0918,0.0941,0.0994,0.0905,0.0955,0.0884,0.0879,0.0996,0.1,0.1003,0.1005,0,0,0.0329,0.047,0.0519,0.053,0.0558,0.0514,0.0528,0.05,0.0533,0.0558,0.0594,0.0699,0.0784,0.0852,0.0879,0.0821,0.0738,0.0898,0.0903,0.0699,0.0723,0.0701,0.0694,0.0797,0.0797,0.0798,0.0634,0,0.0345,0.0422,0.0493,0.0501,0.053,0.0538,0.0522,0.0489,0.053,0.0571,0.0609,0.0717,0.076,0.0829,0.0787,0.08,0.0741,0.0777,0.0828,0.0828,0.0694,0.0694,0.0638,0.0491,0.063,0.0629,0.0629,0,0.0402,0.0438,0.0453,0.0506,0.053,0.0512,0.0531,0.0506,0.056,0.0616,0.0711,0.0792,0.0772,0.0815,0.0768,0.0809,0.0805,0.075,0.0744,0.0834,0.0804,0.0508,0.0478,0.0622,0.0623,0.0623,0.0624,0,0.0371,0.0472,0.0474,0.0472,0.0472,0.0524,0.0536,0.057,0.0581,0.0689,0.0719,0.0779,0.0789,0.0804,0.0763,0.0799,0.0666,0.0689,0.064,0.0633,0.0659,0.0656,0.0694,0.0694,0.0695,0.0695,0.0696,0,0.0415,0.0464,0.0484,0.0474,0.0498,0.0515,0.0575,0.0624,0.0667,0.0686,0.0782,0.0769,0.0808,0.0754,0.0744,0.0657,0.067,0.0638,0.0611,0.0568,0.056,0.0786,0.0798,0.0689,0.069,0.0692,0.0693,0,0.0451,0.0469,0.0487,0.0488,0.0514,0.054,0.0608,0.0626,0.0685,0.0705,0.0749,0.0745,0.0711,0.068,0.0628,0.0599,0.0532,0.0518,0.0425,0.0395,0.0485,0.0489,0.0428,0.0426,0.0425,0.0424,0.0423,0,0.0475,0.0482,0.0483,0.0504,0.0557,0.06,0.0627,0.0672,0.067,0.067,0.0644,0.0644,0.0597,0.045,0.0421,0.0356,0.0476,0.0318,0.0401,0.0489,0.0468,0.0474,0.0479,0.0275,0.0272,0.0271,0.0269,0,0.0509,0.0536,0.0512,0.0507,0.0563,0.058,0.0629,0.0601,0.0626,0.0607,0.0553,0.0516,0.0394,0.0312,0.026,0.022,0.0328,0.0283,0.0396,0.0382,0.0341,0.0322,0.0333,0.0254,0.0255,0.0257,0.0257,0.0258,0.0566,0.0548,0.0516,0.053,0.0566,0.0577,0.0604,0.0565,0.0533,0.0466,0.0411,0.0341,0.0267,0.0153,0.0148,0.0186,0.0169,0.0217,0.0223,0.0231,0.0274,0.0238,0.0132,0.0133,0.0133,0.0134,0.0134,0,0.061,0.0572,0.0543,0.0533,0.0549,0.0615,0.0598,0.0545,0.0495,0.0392,0.0307,0.0203,0.0101,0.0146,0.0141,0.01,0.0097,0.0175,0.0202,0.0211,0.0221,0.027,0.0122,0.0124,0.0125,0.0127,0,0,0.0611,0.0595,0.0532,0.0522,0.0572,0.0636,0.0667,0.0537,0.0441,0.0267,0.024,0.0033,0.0078,0.0112,0.0074,0.0154,0.0198,0.0143,0.0124,0.0159,0.0172,0.0182,0.0257,0,0,0,0,0]},{"header":{"parameterUnit":"m.s-1","parameterCategory":2,"la1":30.2991,"la2":30.254,"lo1":-89.0895,"lo2":-89.0444,"dy":0.0017,"dx":0.0017,"nx":28,"ny":28,"refTime":"2023-08-06T03:00:00:Z","depth":"2","parameterNumber":3,"parameterNumberName":"V-component_of_CURRENTS"},"data":[0,0,0,0,0,0,0,0,0,0,0,0,0,0,0,0,0,0,0,0,0,0,0,0,0,0,0,0,0,0,0,0,0,0,0,0,0,0,0,0,0,0,0,0,0,0,0,0,0,0,0,0,0,0,0,0,0,0,-0.0649,-0.0649,0,-0.0602,-0.0601,-0.06,-0.0566,-0.0566,-0.0567,-0.0567,-0.0648,-0.0649,-0.0651,0,0,0,0,0,0,0,0,0,0,0,0,0,-0.0563,-0.0565,-0.0649,-0.0649,-0.0649,-0.0602,-0.0601,-0.06,-0.0566,-0.0566,-0.0567,-0.0567,-0.0647,-0.0649,-0.0651,0,0,0,0,0,0,0,0,0,0,0,0,0,-0.0561,-0.0566,-0.0649,-0.0631,-0.063,-0.0603,-0.0601,-0.06,-0.0566,-0.0566,-0.0567,-0.0567,-0.0646,-0.0649,-0.0652,-0.066,0,0,-0.066,-0.0662,0,0,0,0,0,0,0,0,-0.0561,-0.0563,-0.0634,-0.0632,-0.0631,-0.0596,-0.0601,-0.0628,-0.0566,-0.0583,-0.0567,-0.0567,-0.0646,-0.0649,-0.0628,-0.0664,-0.0667,-0.0661,-0.0662,-0.0663,-0.0664,0,0,0,0,0,0,0,-0.0562,-0.0564,-0.0624,-0.0634,-0.0632,-0.0576,-0.0577,-0.0604,-0.061,-0.0582,-0.0581,-0.0586,-0.0645,-0.0625,-0.063,-0.0668,-0.066,-0.0663,-0.0665,-0.0666,-0.0574,-0.057,0,0,0,0,0,0,-0.0588,-0.0566,-0.0625,-0.0623,-0.0604,-0.0579,-0.0579,-0.0601,-0.0607,-0.0609,-0.0585,-0.0585,-0.062,-0.0627,-0.0633,-0.0649,-0.0663,-0.0666,-0.0668,-0.0578,-0.0573,-0.0568,0,0,0,0,0,0,-0.0587,-0.0595,-0.0627,-0.0597,-0.0598,-0.0581,-0.0605,-0.06,-0.0571,-0.061,-0.0613,-0.0562,-0.0621,-0.0629,-0.0608,-0.0653,-0.0667,-0.067,-0.0583,-0.0576,-0.0571,-0.0679,0,0,0,0,0,0,-0.0585,-0.0595,-0.0619,-0.06,-0.0601,-0.0609,-0.0606,-0.0599,-0.0578,-0.0575,-0.0591,-0.0599,-0.0622,-0.0603,-0.0611,-0.0657,-0.0672,-0.0588,-0.058,-0.0572,-0.068,-0.0677,-0.0674,0,0,0,0,0,-0.0582,-0.055,-0.0621,-0.0628,-0.0636,-0.0609,-0.0602,-0.0586,-0.0576,-0.056,-0.0539,-0.0598,-0.0559,-0.0602,-0.0612,-0.0661,-0.0592,-0.0582,-0.0573,-0.0682,-0.0678,-0.0674,0,0,0,0,0,0,-0.0516,-0.0546,-0.062,-0.0608,-0.0636,-0.0606,-0.0559,-0.0578,-0.0545,-0.0533,-0.0562,-0.0567,-0.0546,-0.0554,-0.0601,-0.0587,-0.0579,-0.0571,-0.0658,-0.0654,-0.0651,-0.067,-0.0674,0,0,0,0,0,-0.0531,-0.0516,-0.0575,-0.057,-0.057,-0.058,-0.0565,-0.0577,-0.055,-0.0534,-0.0552,-0.0536,-0.0514,-0.0545,-0.051,-0.0543,-0.0542,-0.0559,-0.0556,-0.0555,-0.056,-0.0571,-0.0574,-0.0538,-0.0538,-0.0538,0,0,-0.0525,-0.052,-0.0532,-0.0556,-0.0552,-0.0567,-0.0565,-0.0531,-0.056,-0.0553,-0.0548,-0.0515,-0.0495,-0.0498,-0.0496,-0.0531,-0.0554,-0.0543,-0.0544,-0.055,-0.0563,-0.0568,-0.0572,-0.0532,-0.0533,-0.0534,0,0,-0.0446,-0.0481,-0.0454,-0.0481,-0.0496,-0.0511,-0.0511,-0.0513,-0.0518,-0.0529,-0.0498,-0.0489,-0.0485,-0.0496,-0.0496,-0.045,-0.05,-0.0428,-0.0506,-0.0517,-0.0524,-0.053,-0.0531,-0.0536,-0.0479,-0.048,-0.048,0,-0.045,-0.0438,-0.0442,-0.0431,-0.045,-0.0492,-0.0503,-0.0517,-0.0526,-0.0532,-0.053,-0.0482,-0.0491,-0.0505,-0.0488,-0.0464,-0.0458,-0.0554,-0.0528,-0.0533,-0.0537,-0.0537,-0.0542,-0.0484,-0.0483,-0.0483,-0.0482,0,-0.0405,-0.0397,-0.0349,-0.039,-0.0411,-0.0397,-0.0468,-0.0475,-0.0495,-0.054,-0.0531,-0.0524,-0.05,-0.0515,-0.0509,-0.0535,-0.0513,-0.0499,-0.0575,-0.055,-0.0547,-0.0551,-0.0489,-0.0488,-0.0487,-0.0486,0,0,-0.0391,-0.0342,-0.033,-0.0349,-0.0392,-0.0401,-0.0428,-0.0477,-0.0482,-0.054,-0.0555,-0.0558,-0.0556,-0.0545,-0.0546,-0.061,-0.0652,-0.059,-0.0588,-0.0657,-0.067,-0.0502,-0.049,-0.065,-0.065,-0.0651,-0.066,0,-0.0366,-0.0326,-0.0315,-0.032,-0.0323,-0.0369,-0.0391,-0.0455,-0.0482,-0.0506,-0.0563,-0.0539,-0.0572,-0.0545,-0.062,-0.0602,-0.0661,-0.0649,-0.0623,-0.0622,-0.0533,-0.0488,-0.0557,-0.0556,-0.0663,-0.0664,-0.0664,0,-0.0343,-0.0314,-0.0304,-0.0287,-0.0292,-0.0312,-0.0343,-0.0374,-0.0431,-0.0438,-0.0476,-0.0488,-0.0553,-0.0568,-0.0636,-0.0623,-0.0647,-0.0679,-0.0679,-0.0489,-0.0459,-0.0587,-0.0558,-0.0669,-0.0669,-0.0668,-0.0668,0,-0.0345,-0.0295,-0.0278,-0.0296,-0.0307,-0.0295,-0.0304,-0.0351,-0.0361,-0.0378,-0.0377,-0.0445,-0.0452,-0.0519,-0.0555,-0.0594,-0.0624,-0.0676,-0.0562,-0.0551,-0.0583,-0.0571,-0.0727,-0.0727,-0.0727,-0.0727,-0.0727,0,-0.0324,-0.0303,-0.0266,-0.0278,-0.0252,-0.0277,-0.0256,-0.0257,-0.0275,-0.028,-0.0329,-0.0329,-0.044,-0.0469,-0.0533,-0.0517,-0.0589,-0.0554,-0.0535,-0.061,-0.06,-0.0671,-0.0664,-0.0727,-0.0727,-0.0727,-0.0727,0,-0.0318,-0.0299,-0.0274,-0.0258,-0.0247,-0.0238,-0.0217,-0.0206,-0.0203,-0.0202,-0.0195,-0.0249,-0.0247,-0.0327,-0.0402,-0.0439,-0.0461,-0.0436,-0.0493,-0.0477,-0.0409,-0.0407,-0.0354,-0.0348,-0.0343,-0.0338,-0.0335,0,-0.0301,-0.029,-0.0263,-0.0248,-0.0223,-0.0201,-0.0182,-0.0169,-0.0154,-0.0143,-0.0145,-0.0131,-0.0109,-0.0131,-0.0182,-0.0212,-0.0292,-0.0279,-0.0357,-0.038,-0.0368,-0.0374,-0.0378,-0.047,-0.0468,-0.0467,-0.0465,0,-0.0268,-0.0258,-0.0247,-0.0227,-0.0194,-0.0163,-0.0127,-0.0111,-0.0089,-0.0051,-0.0007,0.0023,0.002,-0.0034,-0.0018,-0.0062,-0.0275,-0.0234,-0.027,-0.0497,-0.0475,-0.0467,-0.0472,-0.0449,-0.0451,-0.0452,-0.0453,-0.0454,-0.023,-0.0219,-0.0207,-0.0191,-0.0153,-0.0113,-0.0081,-0.0032,0.0026,0.0063,0.0074,0.0101,-0.0051,-0.0027,-0.0032,-0.0029,-0.0059,-0.0179,-0.0194,-0.0209,-0.0163,-0.0126,-0.003,-0.0029,-0.0028,-0.0028,-0.0027,0,-0.0179,-0.0176,-0.0172,-0.0148,-0.011,-0.0076,-0.0034,-0.0013,0.0091,0.0093,0.0151,0.0017,-0.0004,-0.0078,-0.0055,-0.0046,-0.0134,-0.0066,-0.0265,-0.0279,-0.0293,-0.026,-0.0148,-0.0148,-0.0148,-0.0148,0,0,-0.0155,-0.0138,-0.0161,-0.0109,-0.0064,0.0015,0.0058,0.0085,0.0073,0.0089,0.0083,-0.0006,-0.0089,-0.0161,-0.0194,-0.0149,-0.0203,-0.0132,-0.0046,-0.0296,-0.0309,-0.0375,-0.0339,0,0,0,0,0]}],[{"header":{"parameterUnit":"m.s-1","parameterCategory":2,"la1":30.2991,"la2":30.254,"lo1":-89.0895,"lo2":-89.0444,"dy":0.0017,"dx":0.0017,"nx":28,"ny":28,"refTime":"2023-08-06T03:00:00:Z","depth":"4","parameterNumber":2,"parameterNumberName":"U-component_of_CURRENTS"},"data":[0,0,0,0,0,0,0,0,0,0,0,0,0,0,0,0,0,0,0,0,0,0,0,0,0,0,0,0,0,0,0,0,0,0,0,0,0,0,0,0,0,0,0,0,0,0,0,0,0,0,0,0,0,0,0,0,0,0,-0.0535,-0.0534,0,-0.0477,-0.0477,-0.0476,-0.0455,-0.0455,-0.0455,-0.0455,-0.0502,-0.0503,-0.0504,0,0,0,0,0,0,0,0,0,0,0,0,0,-0.052,-0.0521,-0.0535,-0.0534,-0.0533,-0.0477,-0.0477,-0.0476,-0.0455,-0.0455,-0.0455,-0.0455,-0.0501,-0.0503,-0.0504,0,0,0,0,0,0,0,0,0,0,0,0,0,-0.0502,-0.0521,-0.0535,-0.0515,-0.0513,-0.0477,-0.0477,-0.0476,-0.0455,-0.0455,-0.0455,-0.0455,-0.0501,-0.0502,-0.0504,-0.0513,0,0,-0.051,-0.051,0,0,0,0,0,0,0,0,-0.0503,-0.0503,-0.0519,-0.0516,-0.0514,-0.0472,-0.0488,-0.0493,-0.0455,-0.0478,-0.0455,-0.0455,-0.0501,-0.0502,-0.0491,-0.0515,-0.0517,-0.051,-0.0511,-0.0512,-0.0512,0,0,0,0,0,0,0,-0.0505,-0.0505,-0.0513,-0.0518,-0.0515,-0.0472,-0.0471,-0.0488,-0.0492,-0.0476,-0.0474,-0.0466,-0.05,-0.049,-0.0493,-0.0518,-0.051,-0.0511,-0.0512,-0.0513,-0.0585,-0.0586,0,0,0,0,0,0,-0.0515,-0.0507,-0.0515,-0.0511,-0.0507,-0.0473,-0.0471,-0.0486,-0.049,-0.0489,-0.0465,-0.0465,-0.0487,-0.0491,-0.0494,-0.0536,-0.0512,-0.0513,-0.0514,-0.0584,-0.0585,-0.0586,0,0,0,0,0,0,-0.0516,-0.0518,-0.0517,-0.0505,-0.0502,-0.0474,-0.049,-0.0485,-0.0484,-0.048,-0.0482,-0.0471,-0.0487,-0.0492,-0.0518,-0.0537,-0.0514,-0.0516,-0.0583,-0.0584,-0.0585,-0.0601,0,0,0,0,0,0,-0.0516,-0.0519,-0.053,-0.0507,-0.0503,-0.0508,-0.049,-0.0484,-0.0478,-0.0477,-0.0486,-0.0489,-0.0487,-0.0515,-0.052,-0.0539,-0.0517,-0.0582,-0.0584,-0.0585,-0.0599,-0.0602,-0.0605,0,0,0,0,0,-0.0516,-0.0529,-0.0531,-0.0531,-0.0522,-0.0508,-0.0503,-0.0482,-0.0478,-0.0481,-0.0487,-0.0489,-0.0529,-0.0517,-0.0522,-0.0543,-0.0581,-0.0583,-0.0585,-0.0598,-0.0602,-0.0605,0,0,0,0,0,0,-0.0514,-0.0527,-0.0529,-0.0543,-0.0533,-0.0504,-0.0497,-0.049,-0.0494,-0.0497,-0.0499,-0.0503,-0.0534,-0.0538,-0.0525,-0.0569,-0.0556,-0.0559,-0.0565,-0.0569,-0.0571,-0.0568,-0.0518,0,0,0,0,0,-0.0523,-0.0545,-0.054,-0.0548,-0.0547,-0.0528,-0.0518,-0.051,-0.0506,-0.0507,-0.0514,-0.0527,-0.0543,-0.0555,-0.0569,-0.0593,-0.0593,-0.0611,-0.0614,-0.0616,-0.0617,-0.0639,-0.0643,-0.0592,-0.0592,-0.0592,0,0,-0.0517,-0.053,-0.0537,-0.055,-0.0539,-0.0542,-0.0523,-0.0517,-0.0521,-0.0515,-0.0532,-0.0541,-0.0553,-0.0576,-0.0591,-0.0583,-0.0628,-0.0619,-0.0621,-0.062,-0.0641,-0.0646,-0.065,-0.0594,-0.0593,-0.0593,0,0,-0.0516,-0.0537,-0.0554,-0.0558,-0.0557,-0.0549,-0.0555,-0.0544,-0.0544,-0.0559,-0.0558,-0.0575,-0.06,-0.0606,-0.0614,-0.0644,-0.0645,-0.0657,-0.0669,-0.0689,-0.0694,-0.0697,-0.0689,-0.0692,-0.0657,-0.0657,-0.0657,0,-0.0506,-0.0537,-0.055,-0.0567,-0.0567,-0.0561,-0.0568,-0.0568,-0.0567,-0.0573,-0.0572,-0.0599,-0.0612,-0.0634,-0.0645,-0.0651,-0.0656,-0.0652,-0.0693,-0.0696,-0.07,-0.0691,-0.0694,-0.0658,-0.0658,-0.0658,-0.0658,0,-0.0514,-0.0543,-0.055,-0.0582,-0.0585,-0.0589,-0.0595,-0.0606,-0.0609,-0.0606,-0.063,-0.0635,-0.065,-0.066,-0.0664,-0.0697,-0.0689,-0.0694,-0.0681,-0.0706,-0.0695,-0.0698,-0.0659,-0.0659,-0.0659,-0.0658,0,0,-0.0489,-0.0545,-0.0552,-0.0572,-0.0596,-0.0597,-0.062,-0.0631,-0.0643,-0.0648,-0.066,-0.0684,-0.0683,-0.0692,-0.0696,-0.0712,-0.0738,-0.0718,-0.0719,-0.0705,-0.0769,-0.0699,-0.0695,-0.0757,-0.0758,-0.0759,-0.0746,0,-0.049,-0.0529,-0.0559,-0.0588,-0.0604,-0.0622,-0.0641,-0.0654,-0.0664,-0.0678,-0.0683,-0.0697,-0.0696,-0.0704,-0.0722,-0.0737,-0.0749,-0.074,-0.0752,-0.0751,-0.0682,-0.0697,-0.0762,-0.0748,-0.0749,-0.0749,-0.0749,0,-0.049,-0.0522,-0.0553,-0.0602,-0.061,-0.0627,-0.0656,-0.0672,-0.0695,-0.0703,-0.0715,-0.0718,-0.0736,-0.0735,-0.0762,-0.0759,-0.077,-0.0774,-0.0774,-0.0706,-0.0687,-0.0722,-0.0754,-0.0754,-0.0754,-0.0753,-0.0753,0,-0.0463,-0.0519,-0.0547,-0.0561,-0.061,-0.0629,-0.065,-0.0678,-0.0692,-0.0717,-0.0725,-0.0743,-0.0747,-0.077,-0.0773,-0.078,-0.0795,-0.0803,-0.0742,-0.0736,-0.0796,-0.0793,-0.0829,-0.0829,-0.0829,-0.0829,-0.0829,0,-0.0453,-0.0479,-0.0539,-0.0552,-0.058,-0.0619,-0.0646,-0.0668,-0.0699,-0.0708,-0.0734,-0.0729,-0.0763,-0.0768,-0.0779,-0.0755,-0.0798,-0.0741,-0.0733,-0.0801,-0.0798,-0.0797,-0.0794,-0.0828,-0.0828,-0.0828,-0.0828,0,-0.042,-0.0462,-0.0495,-0.0552,-0.0569,-0.0587,-0.0639,-0.0652,-0.0689,-0.0702,-0.0709,-0.0728,-0.0723,-0.0736,-0.0759,-0.0745,-0.0741,-0.0725,-0.0774,-0.0769,-0.0667,-0.0665,-0.0657,-0.0654,-0.0652,-0.065,-0.0649,0,-0.0407,-0.0423,-0.048,-0.0494,-0.0522,-0.0559,-0.0578,-0.0634,-0.0649,-0.0683,-0.0679,-0.0685,-0.0688,-0.0646,-0.0679,-0.0676,-0.0677,-0.0671,-0.069,-0.0659,-0.0652,-0.0653,-0.0653,-0.0646,-0.0645,-0.0644,-0.0644,0,-0.0378,-0.0402,-0.0426,-0.0451,-0.0477,-0.05,-0.0535,-0.0548,-0.0602,-0.0646,-0.0621,-0.0611,-0.0597,-0.0595,-0.0592,-0.0597,-0.0675,-0.065,-0.0654,-0.0672,-0.0645,-0.064,-0.0643,-0.0637,-0.0638,-0.0638,-0.0639,0,-0.0354,-0.0357,-0.0387,-0.0406,-0.0422,-0.0421,-0.0458,-0.0477,-0.0503,-0.0559,-0.0543,-0.0549,-0.0575,-0.0552,-0.0551,-0.0544,-0.0546,-0.0545,-0.0556,-0.0564,-0.0542,-0.0495,-0.043,0,0,0,0,0,-0.0329,-0.033,-0.0339,-0.0345,-0.0349,-0.0354,-0.0414,-0.0457,-0.0525,-0.0488,-0.0518,-0.0498,-0.0481,-0.0487,-0.0461,-0.052,-0.0554,-0.049,-0.056,-0.0596,-0.0604,-0.0588,0,0,0,0,0,0,-0.0314,-0.0323,-0.0325,-0.0282,-0.0259,-0.0259,-0.029,-0.0341,-0.0339,-0.0406,-0.0397,-0.0446,-0.0437,-0.0461,-0.0432,-0.044,-0.0473,-0.0508,-0.0507,-0.0591,-0.0599,-0.0606,-0.0592,0,0,0,0,0]},{"header":{"parameterUnit":"m.s-1","parameterCategory":2,"la1":30.2991,"la2":30.254,"lo1":-89.0895,"lo2":-89.0444,"dy":0.0017,"dx":0.0017,"nx":28,"ny":28,"refTime":"2023-08-06T03:00:00:Z","depth":"4","parameterNumber":3,"parameterNumberName":"V-component_of_CURRENTS"},"data":[0,0,0,0,0,0,0,0,0,0,0,0,0,0,0,0,0,0,0,0,0,0,0,0,0,0,0,0,0,0,0,0,0,0,0,0,0,0,0,0,0,0,0,0,0,0,0,0,0,0,0,0,0,0,0,0,0,0,-0.0285,-0.0285,0,-0.0261,-0.0261,-0.026,-0.0264,-0.0264,-0.0265,-0.0265,-0.0251,-0.025,-0.0249,0,0,0,0,0,0,0,0,0,0,0,0,0,-0.0234,-0.0235,-0.0285,-0.0285,-0.0285,-0.0261,-0.0261,-0.026,-0.0264,-0.0264,-0.0265,-0.0266,-0.0251,-0.025,-0.0249,0,0,0,0,0,0,0,0,0,0,0,0,0,-0.0236,-0.0235,-0.0285,-0.0285,-0.0285,-0.0261,-0.0261,-0.026,-0.0263,-0.0264,-0.0265,-0.0266,-0.0252,-0.025,-0.0249,-0.0224,0,0,-0.0245,-0.0244,0,0,0,0,0,0,0,0,-0.0236,-0.0238,-0.0285,-0.0285,-0.0285,-0.0268,-0.0237,-0.0249,-0.0263,-0.027,-0.0265,-0.0266,-0.0258,-0.0256,-0.0247,-0.0223,-0.0222,-0.0245,-0.0244,-0.0243,-0.0243,0,0,0,0,0,0,0,-0.0236,-0.0238,-0.0274,-0.0285,-0.0285,-0.0252,-0.0254,-0.0239,-0.0258,-0.0269,-0.027,-0.027,-0.0258,-0.0248,-0.0247,-0.0222,-0.0245,-0.0244,-0.0243,-0.0242,-0.023,-0.023,0,0,0,0,0,0,-0.0247,-0.0239,-0.0275,-0.0273,-0.0264,-0.0253,-0.0255,-0.0271,-0.0258,-0.0258,-0.0269,-0.027,-0.025,-0.0248,-0.0246,-0.0253,-0.0243,-0.0242,-0.0241,-0.023,-0.023,-0.0231,0,0,0,0,0,0,-0.0246,-0.0251,-0.0276,-0.0255,-0.0257,-0.0254,-0.0271,-0.027,-0.0272,-0.0258,-0.0258,-0.0273,-0.0251,-0.0248,-0.0254,-0.0251,-0.0241,-0.024,-0.0229,-0.023,-0.023,-0.0242,0,0,0,0,0,0,-0.0245,-0.0251,-0.0262,-0.0257,-0.0258,-0.0271,-0.027,-0.0269,-0.027,-0.0272,-0.0261,-0.026,-0.0251,-0.0256,-0.0252,-0.0249,-0.0239,-0.0228,-0.0229,-0.023,-0.0241,-0.0243,-0.0245,0,0,0,0,0,-0.0244,-0.0262,-0.0263,-0.0267,-0.0275,-0.0271,-0.0269,-0.0267,-0.027,-0.0271,-0.0273,-0.0261,-0.0259,-0.0255,-0.0251,-0.0247,-0.0228,-0.0229,-0.023,-0.024,-0.0243,-0.0245,0,0,0,0,0,0,-0.0244,-0.0264,-0.0265,-0.0288,-0.0282,-0.0273,-0.0272,-0.0271,-0.027,-0.0275,-0.0266,-0.0265,-0.0268,-0.0259,-0.0255,-0.0249,-0.0241,-0.0242,-0.0251,-0.0253,-0.0255,-0.0258,-0.0238,0,0,0,0,0,-0.0249,-0.0267,-0.0272,-0.0286,-0.0288,-0.0279,-0.0276,-0.0276,-0.0276,-0.0277,-0.0271,-0.0268,-0.0265,-0.0263,-0.0258,-0.025,-0.0244,-0.0247,-0.0249,-0.025,-0.0251,-0.025,-0.0252,-0.0234,-0.0234,-0.0234,0,0,-0.0252,-0.0263,-0.0273,-0.0286,-0.0281,-0.0285,-0.028,-0.0281,-0.0283,-0.0275,-0.0278,-0.0274,-0.0267,-0.0265,-0.0265,-0.0258,-0.0252,-0.0252,-0.0253,-0.0253,-0.0252,-0.0253,-0.0255,-0.0235,-0.0235,-0.0235,0,0,-0.0259,-0.0278,-0.0291,-0.0292,-0.0292,-0.029,-0.0294,-0.0291,-0.0291,-0.0291,-0.029,-0.0291,-0.028,-0.0276,-0.0273,-0.0282,-0.0265,-0.0278,-0.0284,-0.0283,-0.0284,-0.0286,-0.0276,-0.0276,-0.0276,-0.0276,-0.0276,0,-0.0263,-0.0282,-0.029,-0.0298,-0.0302,-0.0297,-0.0306,-0.03,-0.0298,-0.03,-0.0298,-0.0293,-0.0285,-0.0285,-0.0289,-0.0284,-0.028,-0.0274,-0.0285,-0.0286,-0.0287,-0.0277,-0.0276,-0.0276,-0.0276,-0.0276,-0.0276,0,-0.0271,-0.0289,-0.0296,-0.0311,-0.0314,-0.032,-0.0321,-0.0323,-0.0323,-0.0317,-0.0319,-0.0309,-0.0309,-0.0302,-0.0296,-0.0297,-0.029,-0.0289,-0.0277,-0.0289,-0.0278,-0.0277,-0.0277,-0.0277,-0.0277,-0.0277,0,0,-0.0287,-0.0301,-0.0307,-0.0317,-0.0325,-0.0333,-0.0338,-0.0344,-0.0354,-0.034,-0.0353,-0.0336,-0.0331,-0.0328,-0.0317,-0.0309,-0.0307,-0.0301,-0.03,-0.0287,-0.0299,-0.0295,-0.0294,-0.0307,-0.0308,-0.0308,-0.0286,0,-0.0294,-0.0314,-0.032,-0.0342,-0.0354,-0.0359,-0.0366,-0.0369,-0.037,-0.0379,-0.0363,-0.0368,-0.034,-0.0345,-0.0332,-0.0319,-0.0307,-0.0312,-0.0292,-0.0291,-0.0284,-0.0294,-0.0308,-0.0286,-0.0286,-0.0286,-0.0286,0,-0.0306,-0.0319,-0.0341,-0.0366,-0.0374,-0.0385,-0.0409,-0.0414,-0.0419,-0.0419,-0.0415,-0.0409,-0.0395,-0.0377,-0.0342,-0.0347,-0.0324,-0.0306,-0.0305,-0.0298,-0.0288,-0.0273,-0.0285,-0.0285,-0.0285,-0.0285,-0.0285,0,-0.0317,-0.0341,-0.0361,-0.0368,-0.039,-0.0405,-0.0417,-0.0427,-0.0439,-0.0449,-0.0463,-0.0442,-0.0448,-0.0407,-0.0367,-0.0358,-0.0333,-0.0318,-0.0289,-0.0288,-0.0291,-0.029,-0.0298,-0.0298,-0.0298,-0.0298,-0.0298,0,-0.0331,-0.0351,-0.0369,-0.0382,-0.0415,-0.0421,-0.0455,-0.0463,-0.0478,-0.0496,-0.0485,-0.0495,-0.0458,-0.044,-0.0385,-0.0338,-0.0347,-0.0291,-0.0285,-0.0296,-0.0296,-0.029,-0.029,-0.0297,-0.0297,-0.0297,-0.0297,0,-0.0345,-0.0354,-0.0383,-0.0409,-0.0423,-0.0448,-0.0485,-0.0506,-0.0512,-0.054,-0.0546,-0.0546,-0.0515,-0.047,-0.042,-0.0375,-0.0321,-0.0304,-0.032,-0.0315,-0.0268,-0.0268,-0.0261,-0.0261,-0.0261,-0.0261,-0.0261,0,-0.0354,-0.0367,-0.0407,-0.0434,-0.0451,-0.0486,-0.0514,-0.0527,-0.0544,-0.0562,-0.0576,-0.0571,-0.0559,-0.048,-0.043,-0.0337,-0.0321,-0.0297,-0.0275,-0.0271,-0.0266,-0.0266,-0.0267,-0.026,-0.026,-0.026,-0.026,0,-0.0374,-0.0386,-0.0408,-0.0457,-0.0496,-0.0542,-0.0574,-0.0584,-0.0595,-0.0603,-0.0593,-0.056,-0.0538,-0.0476,-0.0423,-0.0349,-0.0312,-0.0295,-0.0294,-0.0272,-0.027,-0.0265,-0.0265,-0.0259,-0.0259,-0.026,-0.026,0,-0.0388,-0.0408,-0.0437,-0.0476,-0.053,-0.0578,-0.0597,-0.0607,-0.0619,-0.0613,-0.0611,-0.0575,-0.0562,-0.0483,-0.0422,-0.0365,-0.0335,-0.0305,-0.0303,-0.0303,-0.0321,-0.0324,-0.0327,0,0,0,0,0,-0.0403,-0.0419,-0.0457,-0.0504,-0.0556,-0.0587,-0.0629,-0.0637,-0.0637,-0.0625,-0.061,-0.0575,-0.0498,-0.0474,-0.0411,-0.0418,-0.0335,-0.0344,-0.0301,-0.0255,-0.0256,-0.0269,0,0,0,0,0,0,-0.0414,-0.0444,-0.0452,-0.0513,-0.0548,-0.061,-0.0638,-0.0645,-0.0627,-0.0616,-0.0573,-0.0549,-0.0475,-0.0525,-0.0405,-0.0391,-0.0353,-0.0309,-0.0307,-0.0255,-0.0256,-0.0256,-0.027,0,0,0,0,0]}]]